Location: �perlecques
(50.8057°N, 2.1521°E)
Time: 20:57:16
(UTC+00:00)

Tiros 1 - Pass Details

Date: 11 August 2021
Orbit: 630 x 663 km, 48.4° (Epoch: 28 September)

Event Time Altitude Azimuth Distance (km) Brightness Sun altitude
Rises 20:39:27 0° 276° (W) 2,982 11.5 -11.4°
Reaches altitude 10° 20:43:25 10° 243° (WSW) 2,057 10.0 -11.9°
Maximum altitude 20:44:57 11° 224° (SW) 1,953 9.6 -12.0°
Drops below altitude 10° 20:46:29 10° 205° (SSW) 2,046 9.5 -12.2°
Enters shadow 20:48:35 - 184° (S) 2,441 9.7 -12.5°
Sets 20:50:24 0° 172° (S) 2,941 - -12.7°
